This is the latest recevied weather packets stored in our database for station/object K5BOU. If no packets are shown the sender has not sent any weather packets the latest 10 day(s).
| Time | Temp. | Humidity | Pressure | Rain* | Wind** | Luminosity | Snow |
|---|---|---|---|---|---|---|---|
| 1787861417 | 36.67° C | 57% | 1011.2 hPa | 0 mm | - | 640 W/m² | - |
| 1787861112 | 36.67° C | 55% | 1011.3 hPa | 0 mm | - | 654 W/m² | - |
| 1787860811 | 36.67° C | 56% | 1011.6 hPa | 0 mm | - | 657 W/m² | - |
| 1787860506 | 36.11° C | 55% | 1011.5 hPa | 0 mm | - | 669 W/m² | - |
| 1787860200 | 36.11° C | 54% | 1011.5 hPa | 0 mm | - | 673 W/m² | - |
| 1787859896 | 36.67° C | 54% | 1011.7 hPa | 0 mm | - | 672 W/m² | - |
| 1787859591 | 36.11° C | 61% | 1011.7 hPa | 0 mm | - | 672 W/m² | - |
| 1787859291 | 35.56° C | 62% | 1011.8 hPa | 0 mm | - | 668 W/m² | - |
| 1787858988 | 36.11° C | 61% | 1011.7 hPa | 0 mm | - | 670 W/m² | - |
| 1787858683 | 36.11° C | 63% | 1011.9 hPa | 0 mm | - | 678 W/m² | - |
| 1787858378 | 35.56° C | 63% | 1011.8 hPa | 0 mm | - | 686 W/m² | - |
| 1787858073 | 35.56° C | 64% | 1012 hPa | 0 mm | - | 663 W/m² | - |
| 1787857768 | 35° C | 64% | 1012.1 hPa | 0 mm | - | 672 W/m² | - |
| 1787857464 | 35° C | 65% | 1012.1 hPa | 0 mm | - | 675 W/m² | - |
| 1787857162 | 34.44° C | 65% | 1012.3 hPa | 0 mm | - | 696 W/m² | - |
| 1787856857 | 35° C | 63% | 1012.4 hPa | 0 mm | - | 677 W/m² | - |
| 1787856557 | 35° C | 63% | 1012.2 hPa | 0 mm | - | 664 W/m² | - |
| 1787856252 | 34.44° C | 65% | 1012.4 hPa | 0 mm | - | 694 W/m² | - |
| 1787855948 | 34.44° C | 65% | 1012.7 hPa | 0 mm | - | 693 W/m² | - |
| 1787855647 | 34.44° C | 68% | 1012.7 hPa | 0 mm | - | 713 W/m² | - |
| 1787855342 | 33.89° C | 67% | 1012.7 hPa | 0 mm | - | 709 W/m² | - |
| 1787855037 | 33.89° C | 67% | 1013.1 hPa | 0 mm | - | 725 W/m² | - |
| 1787854733 | 33.89° C | 65% | 1013 hPa | 0 mm | - | 722 W/m² | - |
| 1787854434 | 33.33° C | 65% | 1013.1 hPa | 0 mm | - | 768 W/m² | - |
| 1787854127 | 33.33° C | 69% | 1013.2 hPa | 0 mm | - | 517 W/m² | - |
* Rain latest hour (hover to see other rain measurements)
** Current wind speed in m/s (hover to see current wind gust speed)